EW6020 Weather Reports


time (UTC)temp
F
wind
direction
speed
knots
gust
knots
rain 1hr
in
rain 24hr
in
rain mn
in
humidity
%
barometer
mb
20260505121521 50 179 0.0 0.0 0.00 0.00 0.00 93 1013.0
20260505120006 50 179 0.0 0.0 0.00 0.00 0.00 92 1013.0
20260505114505 50 179 0.9 2.6 0.00 0.00 0.00 92 1012.9
20260505113004 50 179 0.0 1.7 0.00 0.00 0.00 92 1012.9
20260505111503 50 179 0.9 2.6 0.00 0.00 0.00 92 1012.9
20260505110130 50 179 0.9 2.6 0.00 0.00 0.00 92 1012.6
20260505101559 50 179 1.7 3.5 0.00 0.00 0.00 92 1012.3
20260505100055 50 179 0.0 1.7 0.00 0.00 0.00 92 1012.3
20260505094609 50 179 0.0 1.7 0.00 0.00 0.00 92 1012.3
20260505093056 50 179 0.9 1.7 0.00 0.00 0.00 92 1012.2
20260505091554 50 179 0.0 1.7 0.00 0.00 0.00 92 1012.1
20260505090048 50 175 1.7 4.3 0.00 0.00 0.00 92 1012.0
20260505084554 50 150 1.7 4.3 0.00 0.00 0.00 92 1011.9
20260505083056 50 150 3.5 5.2 0.00 0.00 0.00 92 1012.0
20260505081554 50 154 1.7 4.3 0.00 0.00 0.00 92 1011.8
20260505080049 50 147 1.7 4.3 0.00 0.00 0.00 91 1011.7
20260505074537 50 179 2.6 4.3 0.00 0.00 0.00 91 1011.4
20260505073038 51 148 3.5 6.1 0.00 0.00 0.00 91 1011.4
20260505071544 51 153 1.7 4.3 0.00 0.00 0.00 90 1011.3
20260505070031 51 150 2.6 6.1 0.00 0.00 0.00 90 1011.1
20260505064533 52 150 3.5 6.1 0.00 0.00 0.00 89 1010.9
20260505063029 52 156 3.5 6.1 0.00 0.00 0.00 88 1010.8
20260505061532 52 155 4.3 7.8 0.00 0.00 0.00 88 1010.7
20260505060034 53 179 3.5 7.0 0.00 0.00 0.00 87 1010.6
20260505054527 54 179 4.3 7.0 0.00 0.00 0.00 87 1010.5
20260505053028 54 179 4.3 7.8 0.00 0.00 0.00 86 1010.4
20260505051528 55 179 4.3 7.8 0.00 0.00 0.00 85 1010.3
20260505041524 59 153 2.6 4.3 0.00 0.00 0.00 80 1009.6
20260505040023 60 179 1.7 4.3 0.00 0.00 0.00 79 1009.3
20260505034524 61 153 4.3 6.1 0.00 0.00 0.00 77 1009.0
20260505033033 62 179 4.3 6.1 0.00 0.00 0.00 76 1008.8
20260505031522 63 179 3.5 6.1 0.00 0.00 0.00 74 1008.6
20260505030021 64 179 4.3 7.0 0.00 0.00 0.00 73 1008.5
20260505024524 65 179 4.3 7.0 0.00 0.00 0.00 71 1008.4
20260505023024 66 150 6.1 8.7 0.00 0.00 0.00 71 1008.2
20260505021519 67 150 6.1 9.6 0.00 0.00 0.00 69 1008.1
20260505020019 68 150 6.1 12.2 0.00 0.00 0.00 67 1008.1
20260505014531 69 179 7.8 12.2 0.00 0.00 0.00 65 1008.0
20260505013018 70 150 8.7 12.2 0.00 0.00 0.00 64 1008.1
20260505011518 70 150 6.1 11.3 0.00 0.00 0.00 64 1008.2
20260505010020 71 168 7.0 13.0 0.00 0.00 0.00 64 1008.3
20260505004518 71 179 6.1 11.3 0.00 0.00 0.00 63 1008.4
20260505003014 72 150 3.5 7.8 0.00 0.00 0.00 62 1008.5
20260505001513 71 179 6.1 9.6 0.00 0.00 0.00 63 1008.5
20260505000014 71 177 7.0 14.8 0.00 0.00 0.00 66 1008.6
20260504234512 71 179 10.4 14.8 0.00 0.00 0.00 66 1008.7
20260504233011 71 149 5.2 11.3 0.00 0.00 0.00 67 1008.8
20260504231511 71 150 7.8 11.3 0.00 0.00 0.00 66 1008.9
20260504230010 71 150 6.1 10.4 0.00 0.00 0.00 67 1009.1
20260504224507 71 176 4.3 10.4 0.00 0.00 0.00 66 1009.1
20260504223006 70 150 5.2 10.4 0.00 0.00 0.00 67 1009.3
20260504221505 70 150 6.1 9.6 0.00 0.00 0.00 69 1009.4
20260504220004 70 178 3.5 11.3 0.00 0.00 0.00 69 1009.6
20260504214503 69 179 5.2 11.3 0.00 0.00 0.00 68 1009.8
20260504213002 68 150 7.0 11.3 0.00 0.00 0.00 68 1009.9
20260504211503 68 150 5.2 11.3 0.00 0.00 0.00 70 1010.1
20260504210106 67 149 3.5 8.7 0.00 0.00 0.00 71 1010.4
20260504204616 67 150 1.7 7.8 0.00 0.00 0.00 73 1010.5
20260504203129 65 150 3.5 8.7 0.00 0.00 0.00 72 1010.7
20260504201556 65 150 4.3 8.7 0.00 0.00 0.00 72 1010.8
20260504200055 64 148 2.6 7.0 0.00 0.00 0.00 75 1010.9
20260504194554 63 150 1.7 8.7 0.00 0.00 0.00 75 1011.0
20260504193054 62 150 2.6 8.7 0.00 0.00 0.00 77 1011.1
20260504191556 61 151 2.6 9.6 0.00 0.00 0.00 78 1011.2
20260504190055 60 178 1.7 6.1 0.00 0.00 0.00 79 1011.3
20260504184551 59 173 4.3 8.7 0.00 0.00 0.00 81 1011.3
20260504183051 59 179 3.5 7.8 0.00 0.00 0.00 81 1011.4
20260504181549 59 180 2.6 6.1 0.00 0.00 0.00 81 1011.4
20260504180053 58 172 0.9 4.3 0.00 0.00 0.00 82 1011.4
20260504174547 57 179 1.7 4.3 0.00 0.00 0.00 84 1011.4
20260504173058 56 178 3.5 6.1 0.00 0.00 0.00 86 1011.4
20260504171545 56 148 2.6 3.5 0.00 0.00 0.00 87 1011.4